Погода в Прокопе

Россия / Томская область     58°42′20″N   81°21′02″E
темп.,
°C
ветер,
м/с
пор.,
м/с
влажн.,
%
обл.,
%
осадки,
мм/ч
давл.,
гПа
погр.,
м
28 ноября, вс
вс2801:00−5юз51393100 1.6 1015560
04:00−4зюз51392100 0.1 1015517
07:00−3зюз5139383 0.3 1017613
10:00−2зюз61490100 0.1 1018694
13:00−1зюз71489100 0.1 10201028
16:00−1з61386100 0.1 1022957
19:00−2з51188100 0.1 1025772
22:00−4зюз51192100 0.0 1027417
29 ноября, пн
пн2901:00−3зюз3894100 0.1 1028414
04:00−4юз3795100 0.1 1028295
07:00−6ююз3895100 0.1 1027276
10:00−7ююз41093100 0.0 1026318
13:00−6ююз41287100 0.0 1025412
16:00−5ююз51378100 0.0 1023445
19:00−6юз5148061 0.0 1022430
22:00−6юз6158179 0.0 1020390
30 ноября, вт
вт3001:00−6юз61578100 0.0 1019431
04:00−7юз6157977 0.0 1019421
07:00−6юз51483100 0.0 1018433
10:00−5юз51288100 0.0 1018442
13:00−4юз51390100 0.0 1018525
16:00−3зюз5119197 0.1 1018538
19:00−3зюз41093100 0.1 1020385
22:00−3зюз3893100 0.0 1021302
1 декабря, ср
ср101:00−3юз3795100 0.0 1021244
04:00−3юз3696100 0.0 1021195
07:00−3ююз3795100 0.0 1020232
10:00−4ююз41089100 0.1 1020335
13:00−7ююз51379100 0.1 1018351
16:00−6ююз51578100 0.0 1016429
19:00−5юз61777100 0.0 1014482
22:00−4юз51578100 0.0 1014514
2 декабря, чт
чт201:00−3юз51480100 0.0 1014466
04:00−3юз51387100 0.1 1014417
07:00−2юз51493100 0.6 1013439
10:00−2ююз51480100 0.3 1013401
13:00−2ююз51578100 0.3 1011400
16:00−2ююз51574100 0.0 1009415
19:00−2ююз61873100 0.0 1007473
22:00−1ююз71874100 0.0 1005522